QPF
0.00 0.00 0.00 0.00 0.00 0.00 0.00 0.00 0.00 0.00 0.00 0.00 0.00 0.00 0.00 0.00 0.00 0.00 0.00 0.00 0.00 0.00 0.00 0.00 0.00 0.00 0.00 0.00 0.00 0.00 0.00 0.00 0.00 0.01 0.01 0.03 0.05 0.06 0.06 0.04 0.03 0.03 0.03 0.03
0.00 0.00 0.00 0.00 0.00 0.00 0.00 0.00 0.00 0.00 0.00 0.00 0.00 0.00 0.00 0.00 0.00 0.00 0.00 0.00 0.00 0.00 0.00 0.00 0.00 0.00 0.00 0.00 0.00 0.00 0.00 0.00 0.00 0.01 0.01 0.02 0.03 0.03 0.04 0.04 0.03 0.03 0.03 0.02
0.00 0.00 0.00 0.00 0.00 0.00 0.00 0.00 0.00 0.00 0.00 0.00 0.00 0.00 0.00 0.00 0.00 0.00 0.00 0.01 0.01 0.01 0.01 0.00 0.00 0.00 0.00 0.00 0.00 0.00 0.00 0.00 0.01 0.02 0.03 0.03 0.03 0.01 0.02 0.03 0.03 0.03 0.03 0.02
0.00 0.00 0.00 0.00 0.00 0.00 0.00 0.00 0.00 0.00 0.00 0.00 0.00 0.01 0.00 0.00 0.00 0.00 0.01 0.01 0.01 0.01 0.01 0.00 0.00 0.00 0.00 0.00 0.00 0.00 0.00 0.00 0.01 0.02 0.05 0.06 0.04 0.02 0.01 0.02 0.02 0.02 0.02 0.02
0.00 0.00 0.00 0.00 0.00 0.00 0.00 0.00 0.00 0.00 0.00 0.00 0.01 0.01 0.00 0.00 0.00 0.00 0.01 0.01 0.01 0.01 0.01 0.01 0.00 0.00 0.00 0.00 0.00 0.00 0.01 0.01 0.02 0.02 0.03 0.05 0.04 0.03 0.02 0.01 0.02 0.02 0.02 0.02
0.00 0.00 0.00 0.00 0.00 0.00 0.00 0.00 0.00 0.00 0.00 0.00 0.00 0.00 0.00 0.00 0.00 0.00 0.00 0.01 0.01 0.01 0.01 0.00 0.00 0.00 0.00 0.00 0.00 0.00 0.01 0.03 0.03 0.03 0.02 0.03 0.04 0.04 0.03 0.02 0.02 0.03 0.02 0.02
0.00 0.00 0.00 0.00 0.00 0.00 0.00 0.00 0.00 0.00 0.00 0.00 0.00 0.00 0.01 0.01 0.00 0.00 0.00 0.01 0.01 0.01 0.01 0.00 0.01 0.01 0.00 0.00 0.00 0.00 0.01 0.02 0.01 0.01 0.03 0.02 0.03 0.04 0.03 0.02 0.03 0.03 0.03 0.02
0.00 0.00 0.00 0.00 0.00 0.00 0.00 0.00 0.00 0.00 0.00 0.00 0.00 0.00 0.00 0.00 0.01 0.01 0.01 0.01 0.01 0.01 0.01 0.01 0.02 0.01 0.01 0.00 0.01 0.01 0.02 0.02 0.01 0.01 0.02 0.02 0.04 0.04 0.03 0.03 0.02 0.03 0.03 0.02
0.00 0.00 0.00 0.00 0.00 0.00 0.00 0.00 0.00 0.00 0.00 0.00 0.00 0.00 0.00 0.00 0.00 0.00 0.00 0.01 0.01 0.02 0.02 0.04 0.04 0.01 0.01 0.01 0.01 0.02 0.03 0.03 0.02 0.01 0.01 0.03 0.04 0.06 0.07 0.06 0.03 0.02 0.03 0.03
0.00 0.00 0.00 0.00 0.00 0.00 0.00 0.00 0.00 0.00 0.00 0.00 0.00 0.00 0.00 0.00 0.00 0.00 0.00 0.01 0.01 0.01 0.02 0.03 0.02 0.01 0.01 0.01 0.01 0.02 0.03 0.03 0.03 0.03 0.03 0.03 0.05 0.06 0.06 0.05 0.02 0.01 0.02 0.02
0.00 0.00 0.00 0.00 0.00 0.00 0.00 0.00 0.00 0.00 0.00 0.00 0.00 0.00 0.00 0.00 0.00 0.00 0.00 0.01 0.01 0.01 0.02 0.01 0.01 0.01 0.01 0.01 0.01 0.02 0.03 0.03 0.04 0.04 0.03 0.03 0.04 0.05 0.05 0.04 0.02 0.01 0.01 0.01
0.00 0.00 0.00 0.00 0.00 0.00 0.00 0.00 0.00 0.00 0.00 0.00 0.00 0.00 0.00 0.00 0.00 0.00 0.00 0.00 0.00 0.01 0.01 0.01 0.01 0.01 0.02 0.01 0.02 0.03 0.04 0.04 0.04 0.06 0.04 0.03 0.03 0.05 0.04 0.04 0.03 0.02 0.02 0.03
0.01 0.00 0.00 0.00 0.00 0.00 0.00 0.00 0.00 0.00 0.00 0.00 0.00 0.00 0.00 0.00 0.00 0.00 0.00 0.00 0.00 0.00 0.01 0.00 0.01 0.02 0.01 0.01 0.01 0.02 0.03 0.03 0.04 0.06 0.05 0.04 0.03 0.04 0.04 0.04 0.03 0.03 0.03 0.03
0.01 0.00 0.00 0.00 0.00 0.00 0.00 0.00 0.00 0.00 0.00 0.00 0.00 0.00 0.00 0.00 0.00 0.00 0.00 0.00 0.00 0.00 0.00 0.00 0.01 0.01 0.02 0.02 0.02 0.02 0.02 0.02 0.02 0.02 0.02 0.03 0.02 0.03 0.02 0.02 0.01 0.02 0.02 0.02
0.01 0.01 0.00 0.00 0.00 0.00 0.01 0.00 0.00 0.00 0.00 0.00 0.00 0.00 0.00 0.00 0.00 0.00 0.00 0.00 0.00 0.00 0.00 0.01 0.01 0.01 0.02 0.03 0.02 0.03 0.04 0.03 0.03 0.02 0.01 0.02 0.02 0.02 0.02 0.02 0.01 0.01 0.01 0.01
0.02 0.01 0.01 0.00 0.00 0.01 0.01 0.01 0.01 0.01 0.01 0.01 0.00 0.00 0.00 0.00 0.00 0.00 0.00 0.00 0.00 0.00 0.01 0.01 0.01 0.01 0.01 0.03 0.03 0.04 0.05 0.04 0.03 0.02 0.02 0.02 0.02 0.02 0.03 0.02 0.01 0.01 0.02 0.02
0.03 0.03 0.02 0.01 0.00 0.00 0.01 0.01 0.01 0.01 0.01 0.01 0.01 0.00 0.00 0.00 0.00 0.00 0.00 0.00 0.00 0.01 0.01 0.01 0.01 0.01 0.02 0.03 0.04 0.05 0.06 0.03 0.02 0.02 0.02 0.03 0.03 0.03 0.04 0.03 0.02 0.02 0.03 0.03
0.03 0.03 0.03 0.01 0.01 0.01 0.01 0.01 0.01 0.01 0.01 0.01 0.01 0.01 0.00 0.00 0.00 0.00 0.00 0.00 0.00 0.01 0.01 0.01 0.01 0.02 0.02 0.03 0.03 0.06 0.04 0.03 0.03 0.04 0.03 0.03 0.04 0.05 0.05 0.04 0.03 0.03 0.03 0.03
0.02 0.02 0.03 0.02 0.02 0.01 0.02 0.02 0.01 0.01 0.03 0.02 0.01 0.01 0.01 0.01 0.01 0.01 0.01 0.00 0.00 0.00 0.00 0.01 0.01 0.02 0.03 0.02 0.02 0.06 0.04 0.03 0.02 0.03 0.02 0.02 0.04 0.05 0.05 0.04 0.04 0.03 0.03 0.03
0.02 0.01 0.02 0.03 0.03 0.02 0.03 0.02 0.01 0.01 0.04 0.04 0.02 0.01 0.01 0.01 0.01 0.02 0.01 0.01 0.01 0.01 0.01 0.02 0.01 0.02 0.03 0.02 0.02 0.05 0.05 0.04 0.03 0.02 0.02 0.01 0.01 0.03 0.05 0.07 0.07 0.05 0.03 0.04
0.03 0.02 0.02 0.03 0.03 0.03 0.02 0.02 0.02 0.02 0.02 0.01 0.01 0.01 0.01 0.01 0.01 0.02 0.01 0.01 0.02 0.02 0.02 0.02 0.02 0.02 0.02 0.02 0.03 0.05 0.06 0.05 0.04 0.03 0.02 0.02 0.01 0.01 0.02 0.04 0.06 0.07 0.05 0.03
0.02 0.02 0.02 0.03 0.03 0.03 0.02 0.01 0.02 0.02 0.02 0.01 0.01 0.01 0.01 0.02 0.02 0.02 0.02 0.01 0.02 0.02 0.02 0.03 0.03 0.03 0.05 0.06 0.05 0.06 0.07 0.06 0.06 0.06 0.05 0.02 0.02 0.02 0.02 0.02 0.03 0.04 0.04 0.04
0.01 0.02 0.02 0.03 0.03 0.02 0.01 0.02 0.02 0.02 0.02 0.02 0.02 0.02 0.01 0.01 0.02 0.02 0.02 0.02 0.02 0.02 0.02 0.04 0.04 0.04 0.07 0.09 0.10 0.07 0.07 0.08 0.08 0.10 0.07 0.04 0.02 0.02 0.02 0.02 0.03 0.03 0.02 0.03
0.02 0.02 0.03 0.04 0.03 0.02 0.02 0.01 0.02 0.03 0.03 0.03 0.03 0.02 0.02 0.01 0.01 0.01 0.01 0.01 0.01 0.01 0.02 0.03 0.05 0.06 0.06 0.07 0.09 0.11 0.09 0.08 0.07 0.07 0.08 0.07 0.05 0.03 0.02 0.02 0.02 0.02 0.03 0.03
0.02 0.02 0.03 0.05 0.05 0.03 0.03 0.03 0.03 0.03 0.03 0.03 0.03 0.03 0.03 0.02 0.01 0.01 0.02 0.01 0.01 0.01 0.02 0.03 0.06 0.07 0.06 0.05 0.06 0.07 0.09 0.10 0.06 0.04 0.03 0.03 0.03 0.02 0.01 0.01 0.02 0.02 0.02 0.03
0.02 0.02 0.04 0.08 0.08 0.06 0.05 0.05 0.05 0.03 0.03 0.03 0.03 0.03 0.04 0.03 0.02 0.02 0.02 0.01 0.01 0.01 0.01 0.04 0.06 0.07 0.06 0.06 0.06 0.05 0.06 0.09 0.06 0.03 0.01 0.01 0.01 0.01 0.01 0.02 0.02 0.02 0.02 0.03
MSLP
1012.91 1013.45 1013.93 1014.36 1014.76 1015.17 1015.61 1016.11 1016.64 1017.20 1017.75 1018.25 1018.68 1019.03 1019.29 1019.47 1019.60 1019.72 1019.83 1019.96 1020.11 1020.28 1020.45 1020.62 1020.77 1020.91 1021.01 1021.09 1021.12 1021.12 1021.06 1020.95 1020.76 1020.52 1020.22 1019.89 1019.55 1019.22 1018.92 1018.66 1018.42 1018.20 1017.97 1017.70
1013.42 1013.88 1014.27 1014.60 1014.91 1015.25 1015.64 1016.11 1016.64 1017.20 1017.75 1018.25 1018.66 1018.97 1019.17 1019.30 1019.38 1019.45 1019.54 1019.67 1019.85 1020.07 1020.31 1020.55 1020.76 1020.94 1021.08 1021.18 1021.22 1021.23 1021.18 1021.08 1020.92 1020.70 1020.41 1020.08 1019.72 1019.34 1018.97 1018.62 1018.29 1017.99 1017.70 1017.41
1013.80 1014.18 1014.47 1014.71 1014.96 1015.25 1015.62 1016.09 1016.63 1017.21 1017.76 1018.25 1018.63 1018.89 1019.03 1019.08 1019.09 1019.11 1019.18 1019.32 1019.53 1019.81 1020.13 1020.44 1020.73 1020.97 1021.15 1021.27 1021.34 1021.35 1021.32 1021.23 1021.09 1020.88 1020.61 1020.28 1019.88 1019.45 1018.99 1018.55 1018.13 1017.74 1017.39 1017.06
1014.05 1014.33 1014.54 1014.72 1014.93 1015.22 1015.60 1016.09 1016.66 1017.27 1017.83 1018.29 1018.62 1018.80 1018.85 1018.81 1018.74 1018.70 1018.74 1018.89 1019.14 1019.48 1019.88 1020.29 1020.66 1020.97 1021.20 1021.35 1021.43 1021.46 1021.43 1021.36 1021.23 1021.04 1020.78 1020.43 1020.01 1019.52 1018.99 1018.46 1017.95 1017.48 1017.07 1016.71
1014.20 1014.40 1014.55 1014.70 1014.89 1015.20 1015.62 1016.16 1016.77 1017.39 1017.95 1018.38 1018.64 1018.73 1018.67 1018.52 1018.35 1018.23 1018.24 1018.39 1018.68 1019.10 1019.58 1020.08 1020.53 1020.91 1021.20 1021.38 1021.48 1021.52 1021.49 1021.42 1021.30 1021.12 1020.86 1020.51 1020.06 1019.53 1018.95 1018.34 1017.76 1017.22 1016.75 1016.37
1014.31 1014.44 1014.55 1014.68 1014.90 1015.23 1015.71 1016.30 1016.95 1017.58 1018.12 1018.49 1018.67 1018.65 1018.47 1018.19 1017.92 1017.73 1017.69 1017.84 1018.18 1018.66 1019.23 1019.82 1020.36 1020.81 1021.14 1021.35 1021.47 1021.49 1021.47 1021.39 1021.27 1021.08 1020.82 1020.47 1020.01 1019.46 1018.84 1018.18 1017.54 1016.96 1016.46 1016.05
1014.43 1014.52 1014.60 1014.74 1014.98 1015.36 1015.88 1016.51 1017.18 1017.81 1018.31 1018.62 1018.69 1018.55 1018.24 1017.84 1017.47 1017.21 1017.13 1017.28 1017.66 1018.20 1018.85 1019.53 1020.15 1020.66 1021.03 1021.27 1021.38 1021.40 1021.34 1021.25 1021.11 1020.91 1020.65 1020.30 1019.84 1019.28 1018.65 1017.97 1017.31 1016.69 1016.16 1015.73
1014.60 1014.67 1014.75 1014.90 1015.16 1015.58 1016.12 1016.77 1017.44 1018.03 1018.48 1018.70 1018.67 1018.41 1017.98 1017.48 1017.02 1016.70 1016.60 1016.76 1017.16 1017.77 1018.49 1019.24 1019.93 1020.49 1020.90 1021.14 1021.24 1021.23 1021.15 1021.02 1020.85 1020.64 1020.37 1020.02 1019.57 1019.02 1018.39 1017.72 1017.04 1016.41 1015.85 1015.40
1014.83 1014.90 1014.98 1015.15 1015.42 1015.85 1016.40 1017.03 1017.66 1018.20 1018.57 1018.70 1018.57 1018.22 1017.70 1017.11 1016.59 1016.24 1016.14 1016.31 1016.75 1017.41 1018.19 1018.99 1019.73 1020.33 1020.76 1021.01 1021.09 1021.05 1020.93 1020.76 1020.55 1020.31 1020.02 1019.67 1019.23 1018.70 1018.09 1017.43 1016.76 1016.12 1015.54 1015.05
1015.09 1015.17 1015.27 1015.44 1015.72 1016.13 1016.65 1017.22 1017.79 1018.26 1018.54 1018.59 1018.38 1017.96 1017.38 1016.77 1016.23 1015.88 1015.78 1015.98 1016.45 1017.15 1017.97 1018.81 1019.58 1020.21 1020.65 1020.89 1020.96 1020.89 1020.72 1020.51 1020.26 1019.99 1019.68 1019.32 1018.89 1018.37 1017.78 1017.14 1016.48 1015.84 1015.24 1014.71
1015.34 1015.45 1015.57 1015.74 1016.00 1016.37 1016.82 1017.32 1017.80 1018.17 1018.37 1018.34 1018.09 1017.63 1017.05 1016.45 1015.93 1015.61 1015.55 1015.78 1016.29 1017.00 1017.84 1018.71 1019.49 1020.13 1020.57 1020.80 1020.86 1020.77 1020.58 1020.33 1020.04 1019.74 1019.40 1019.03 1018.59 1018.09 1017.52 1016.89 1016.24 1015.59 1014.96 1014.39
1015.53 1015.69 1015.83 1016.00 1016.23 1016.53 1016.90 1017.30 1017.67 1017.94 1018.06 1017.98 1017.70 1017.26 1016.72 1016.17 1015.72 1015.46 1015.45 1015.71 1016.24 1016.96 1017.80 1018.66 1019.44 1020.07 1020.51 1020.75 1020.81 1020.71 1020.50 1020.23 1019.92 1019.58 1019.22 1018.82 1018.37 1017.87 1017.30 1016.68 1016.03 1015.37 1014.72 1014.09
1015.66 1015.88 1016.04 1016.21 1016.39 1016.61 1016.88 1017.16 1017.41 1017.59 1017.63 1017.52 1017.25 1016.85 1016.38 1015.92 1015.56 1015.38 1015.43 1015.74 1016.27 1016.99 1017.81 1018.64 1019.40 1020.02 1020.46 1020.71 1020.78 1020.69 1020.49 1020.21 1019.88 1019.52 1019.13 1018.70 1018.23 1017.71 1017.13 1016.50 1015.84 1015.17 1014.48 1013.81
1015.76 1016.03 1016.22 1016.37 1016.50 1016.64 1016.79 1016.95 1017.08 1017.16 1017.14 1017.01 1016.76 1016.42 1016.05 1015.70 1015.45 1015.37 1015.48 1015.82 1016.35 1017.04 1017.82 1018.61 1019.34 1019.94 1020.38 1020.64 1020.73 1020.67 1020.50 1020.23 1019.90 1019.52 1019.10 1018.64 1018.13 1017.58 1016.98 1016.34 1015.66 1014.96 1014.25 1013.53
1015.86 1016.17 1016.38 1016.51 1016.59 1016.64 1016.68 1016.71 1016.72 1016.70 1016.62 1016.47 1016.26 1016.00 1015.73 1015.50 1015.37 1015.38 1015.55 1015.91 1016.44 1017.09 1017.82 1018.55 1019.23 1019.81 1020.24 1020.53 1020.65 1020.64 1020.49 1020.25 1019.93 1019.54 1019.09 1018.59 1018.04 1017.45 1016.81 1016.14 1015.45 1014.73 1014.00 1013.24
1016.00 1016.34 1016.56 1016.67 1016.68 1016.65 1016.57 1016.48 1016.38 1016.26 1016.12 1015.96 1015.78 1015.59 1015.42 1015.32 1015.29 1015.39 1015.62 1016.00 1016.51 1017.11 1017.77 1018.44 1019.07 1019.62 1020.05 1020.35 1020.52 1020.54 1020.45 1020.23 1019.92 1019.53 1019.05 1018.51 1017.92 1017.28 1016.61 1015.91 1015.20 1014.46 1013.71 1012.93
1016.18 1016.54 1016.76 1016.84 1016.79 1016.67 1016.49 1016.28 1016.07 1015.86 1015.67 1015.49 1015.34 1015.22 1015.14 1015.14 1015.21 1015.39 1015.67 1016.07 1016.55 1017.10 1017.70 1018.31 1018.88 1019.39 1019.81 1020.13 1020.33 1020.40 1020.34 1020.16 1019.86 1019.46 1018.97 1018.39 1017.76 1017.08 1016.37 1015.65 1014.91 1014.17 1013.41 1012.62
1016.38 1016.74 1016.94 1016.98 1016.89 1016.69 1016.42 1016.11 1015.80 1015.52 1015.27 1015.08 1014.94 1014.88 1014.88 1014.97 1015.14 1015.39 1015.72 1016.12 1016.58 1017.09 1017.63 1018.17 1018.68 1019.16 1019.56 1019.88 1020.09 1020.20 1020.17 1020.02 1019.74 1019.34 1018.83 1018.23 1017.56 1016.85 1016.12 1015.38 1014.65 1013.91 1013.16 1012.37
1016.53 1016.87 1017.04 1017.05 1016.92 1016.66 1016.32 1015.94 1015.55 1015.21 1014.92 1014.72 1014.61 1014.59 1014.66 1014.83 1015.07 1015.39 1015.76 1016.17 1016.62 1017.09 1017.58 1018.05 1018.51 1018.94 1019.32 1019.63 1019.85 1019.97 1019.97 1019.84 1019.57 1019.17 1018.66 1018.04 1017.36 1016.64 1015.91 1015.17 1014.45 1013.73 1013.00 1012.23
1016.53 1016.84 1016.99 1016.98 1016.81 1016.52 1016.14 1015.72 1015.30 1014.92 1014.62 1014.41 1014.32 1014.35 1014.48 1014.72 1015.03 1015.39 1015.80 1016.23 1016.67 1017.11 1017.54 1017.97 1018.38 1018.76 1019.10 1019.39 1019.61 1019.74 1019.75 1019.63 1019.38 1018.99 1018.48 1017.87 1017.20 1016.48 1015.77 1015.06 1014.37 1013.69 1013.00 1012.27
1016.33 1016.60 1016.72 1016.70 1016.53 1016.23 1015.85 1015.42 1015.00 1014.63 1014.33 1014.15 1014.09 1014.16 1014.34 1014.63 1014.99 1015.40 1015.84 1016.28 1016.71 1017.12 1017.52 1017.90 1018.26 1018.59 1018.90 1019.17 1019.37 1019.49 1019.51 1019.41 1019.16 1018.79 1018.30 1017.72 1017.07 1016.40 1015.72 1015.06 1014.42 1013.80 1013.17 1012.49
1015.88 1016.12 1016.23 1016.20 1016.05 1015.78 1015.44 1015.05 1014.66 1014.33 1014.07 1013.92 1013.90 1014.01 1014.24 1014.56 1014.96 1015.39 1015.84 1016.28 1016.71 1017.10 1017.46 1017.79 1018.11 1018.41 1018.68 1018.92 1019.11 1019.22 1019.24 1019.15 1018.92 1018.58 1018.13 1017.59 1016.99 1016.36 1015.75 1015.16 1014.59 1014.04 1013.48 1012.86
1015.23 1015.43 1015.53 1015.53 1015.41 1015.21 1014.93 1014.62 1014.30 1014.03 1013.83 1013.73 1013.76 1013.90 1014.15 1014.49 1014.89 1015.33 1015.77 1016.20 1016.60 1016.97 1017.29 1017.59 1017.88 1018.14 1018.39 1018.60 1018.78 1018.89 1018.92 1018.84 1018.65 1018.34 1017.93 1017.45 1016.91 1016.35 1015.81 1015.29 1014.81 1014.34 1013.86 1013.33
1014.46 1014.64 1014.74 1014.77 1014.71 1014.58 1014.39 1014.17 1013.95 1013.76 1013.64 1013.59 1013.65 1013.80 1014.05 1014.39 1014.77 1015.18 1015.59 1015.98 1016.34 1016.67 1016.97 1017.24 1017.49 1017.74 1017.97 1018.18 1018.35 1018.47 1018.52 1018.47 1018.31 1018.05 1017.69 1017.27 1016.80 1016.32 1015.85 1015.41 1015.01 1014.62 1014.23 1013.78
1013.70 1013.85 1013.96 1014.02 1014.03 1013.99 1013.90 1013.79 1013.66 1013.56 1013.50 1013.50 1013.57 1013.72 1013.95 1014.23 1014.56 1014.91 1015.25 1015.59 1015.89 1016.18 1016.44 1016.69 1016.93 1017.17 1017.40 1017.62 1017.81 1017.95 1018.03 1018.01 1017.89 1017.68 1017.38 1017.02 1016.61 1016.20 1015.81 1015.44 1015.11 1014.81 1014.49 1014.13
1013.07 1013.21 1013.33 1013.42 1013.49 1013.53 1013.54 1013.52 1013.49 1013.46 1013.45 1013.47 1013.53 1013.65 1013.82 1014.02 1014.26 1014.51 1014.76 1015.01 1015.25 1015.48 1015.70 1015.93 1016.17 1016.41 1016.67 1016.92 1017.14 1017.33 1017.44 1017.47 1017.40 1017.24 1017.00 1016.69 1016.35 1015.99 1015.66 1015.35 1015.09 1014.84 1014.60 1014.32
Thickness
5775 5772 5770 5777 5782 5784 5784 5781 5779 5785 5795 5790 5788 5790 5795 5801 5799 5798 5798 5797 5795 5794 5796 5796 5794 5792 5788 5783 5779 5776 5773 5770 5766 5764 5761 5757 5756 5755 5754 5752 5750 5748 5747 5745
5761 5762 5774 5779 5778 5775 5775 5773 5776 5781 5788 5785 5784 5786 5794 5797 5796 5797 5796 5794 5794 5792 5792 5792 5791 5790 5786 5782 5779 5775 5772 5770 5767 5764 5761 5759 5756 5755 5754 5752 5749 5747 5746 5744
5756 5766 5772 5767 5765 5763 5767 5770 5774 5773 5778 5783 5778 5777 5786 5793 5796 5795 5796 5796 5795 5792 5790 5789 5789 5788 5786 5783 5780 5778 5774 5770 5767 5764 5761 5758 5755 5753 5752 5750 5749 5747 5745 5744
5757 5764 5761 5759 5760 5761 5759 5773 5772 5770 5765 5770 5772 5763 5780 5787 5786 5787 5790 5792 5793 5794 5793 5791 5789 5787 5786 5785 5782 5778 5774 5770 5767 5764 5761 5757 5753 5751 5750 5750 5748 5747 5744 5743
5751 5756 5754 5752 5758 5761 5763 5772 5768 5766 5763 5763 5767 5759 5776 5784 5777 5782 5787 5789 5792 5793 5792 5790 5789 5787 5787 5785 5783 5779 5774 5770 5766 5763 5759 5756 5754 5752 5751 5749 5746 5745 5744 5742
5752 5758 5757 5757 5761 5762 5763 5761 5760 5761 5761 5744 5759 5755 5762 5778 5777 5781 5785 5787 5788 5789 5789 5789 5788 5786 5785 5785 5782 5779 5773 5769 5766 5762 5760 5755 5753 5750 5748 5745 5744 5744 5744 5742
5737 5746 5753 5757 5750 5753 5753 5746 5736 5735 5738 5745 5762 5753 5760 5776 5781 5782 5782 5783 5785 5786 5786 5784 5783 5782 5781 5780 5779 5777 5772 5768 5765 5762 5759 5755 5752 5749 5746 5744 5743 5742 5742 5740
5726 5730 5744 5749 5746 5744 5747 5747 5733 5727 5735 5748 5753 5748 5765 5776 5779 5781 5782 5781 5780 5781 5783 5782 5781 5780 5779 5778 5776 5774 5771 5766 5763 5760 5756 5754 5751 5750 5748 5745 5744 5742 5740 5739
5725 5727 5742 5745 5749 5748 5740 5743 5755 5744 5742 5739 5748 5753 5763 5771 5770 5772 5773 5773 5774 5775 5777 5777 5778 5777 5776 5775 5773 5772 5769 5764 5761 5758 5754 5751 5749 5748 5746 5743 5742 5741 5738 5737
5723 5715 5731 5739 5742 5743 5747 5747 5741 5734 5720 5721 5735 5742 5751 5756 5759 5764 5763 5766 5768 5770 5771 5771 5772 5773 5773 5773 5771 5769 5766 5762 5760 5757 5753 5750 5747 5745 5743 5742 5739 5737 5735 5733
5716 5708 5718 5726 5725 5730 5732 5733 5733 5735 5736 5723 5721 5739 5762 5758 5759 5759 5761 5762 5763 5764 5766 5766 5767 5768 5768 5768 5767 5764 5762 5760 5757 5754 5751 5747 5745 5743 5741 5739 5738 5735 5732 5728
5706 5706 5707 5718 5731 5736 5733 5731 5728 5717 5717 5726 5728 5735 5761 5759 5759 5758 5757 5758 5759 5760 5761 5762 5762 5763 5762 5762 5762 5760 5759 5757 5754 5752 5748 5744 5742 5740 5738 5736 5735 5732 5729 5726
5696 5692 5689 5702 5711 5719 5720 5725 5728 5726 5723 5720 5720 5730 5751 5752 5751 5752 5751 5752 5752 5752 5754 5756 5756 5756 5756 5756 5755 5755 5755 5753 5752 5750 5746 5742 5739 5737 5734 5733 5732 5729 5726 5723
5691 5687 5687 5691 5703 5709 5709 5714 5720 5719 5715 5716 5723 5729 5740 5742 5742 5743 5745 5745 5746 5745 5746 5748 5748 5748 5749 5749 5749 5749 5749 5749 5748 5745 5742 5738 5736 5734 5732 5731 5729 5726 5723 5720
5683 5679 5686 5692 5701 5703 5704 5706 5711 5712 5716 5715 5722 5726 5732 5737 5738 5738 5739 5739 5738 5738 5739 5740 5741 5742 5743 5743 5743 5744 5743 5743 5742 5740 5738 5735 5733 5731 5729 5727 5725 5722 5719 5717
5672 5670 5676 5680 5691 5693 5693 5701 5705 5707 5711 5713 5717 5721 5734 5736 5735 5733 5733 5732 5730 5731 5732 5734 5735 5735 5736 5736 5737 5737 5737 5738 5737 5735 5734 5732 5730 5727 5725 5723 5720 5718 5715 5713
5664 5660 5663 5671 5684 5685 5683 5698 5701 5703 5709 5710 5708 5717 5726 5724 5724 5725 5726 5725 5724 5725 5726 5728 5729 5730 5730 5731 5731 5731 5731 5732 5731 5730 5729 5727 5725 5722 5720 5719 5716 5713 5710 5708
5654 5653 5657 5665 5667 5661 5687 5701 5702 5699 5703 5708 5710 5714 5717 5717 5720 5722 5723 5722 5721 5722 5722 5722 5724 5725 5726 5726 5726 5726 5727 5726 5725 5724 5723 5722 5720 5717 5715 5713 5710 5707 5705 5702
5653 5648 5652 5657 5660 5669 5682 5689 5690 5689 5691 5700 5703 5706 5710 5714 5714 5714 5717 5717 5717 5717 5717 5718 5720 5721 5721 5721 5721 5720 5720 5720 5719 5718 5716 5715 5714 5711 5709 5707 5704 5702 5699 5697
5647 5646 5647 5651 5648 5654 5672 5682 5688 5684 5680 5694 5697 5696 5699 5702 5700 5704 5708 5709 5710 5711 5712 5713 5715 5716 5714 5715 5715 5713 5712 5712 5711 5711 5710 5709 5707 5705 5703 5700 5697 5696 5694 5693
5637 5638 5640 5644 5644 5659 5669 5675 5677 5665 5672 5682 5687 5687 5690 5692 5694 5698 5700 5701 5702 5704 5706 5707 5708 5708 5708 5708 5707 5705 5704 5704 5705 5706 5704 5701 5699 5697 5696 5693 5691 5689 5688 5687
5637 5639 5637 5639 5637 5647 5661 5664 5661 5664 5671 5676 5678 5680 5681 5684 5687 5690 5691 5692 5694 5696 5698 5700 5699 5699 5700 5700 5699 5697 5697 5698 5699 5698 5695 5693 5691 5690 5689 5685 5684 5683 5681 5679
5637 5641 5644 5641 5644 5649 5654 5654 5658 5662 5663 5667 5669 5673 5674 5676 5679 5681 5683 5685 5687 5688 5690 5692 5692 5691 5692 5692 5692 5690 5690 5690 5690 5688 5687 5684 5682 5681 5679 5678 5677 5676 5675 5674
5634 5635 5634 5633 5641 5645 5647 5651 5654 5656 5657 5661 5664 5666 5669 5669 5672 5674 5676 5678 5679 5681 5682 5684 5684 5684 5683 5683 5683 5683 5682 5682 5681 5679 5678 5677 5674 5672 5671 5670 5671 5670 5669 5668
5626 5626 5626 5626 5633 5638 5642 5643 5645 5648 5651 5654 5657 5660 5662 5663 5665 5666 5668 5670 5672 5674 5675 5677 5676 5676 5675 5675 5675 5675 5675 5674 5672 5671 5670 5669 5668 5666 5663 5663 5662 5662 5661 5660
5621 5619 5619 5622 5628 5629 5631 5636 5639 5639 5641 5645 5648 5652 5655 5657 5658 5659 5661 5663 5665 5666 5668 5668 5669 5669 5669 5668 5667 5668 5668 5667 5665 5663 5663 5663 5662 5660 5659 5657 5655 5652 5651 5649